STARLINK-11415 [DTC] (62592 NORAD) Tracking and Keplerian Element Data

This shows tracking and keplerian element data for the satellite.

Feedback or suggestion? Click here.




ElementValue
Catalog62592
NameSTARLINK-11415 [DTC]
Epoch Orbit444
Epoch Day34.66008563
Epoch Year2025
RAAN13.5112
Inclination43.0004
Eccentricity0.0001392
Argument of Perigee269.069
Mean Anonmoly91.0021
Mean Motion15.77861061
Decay Rate7.66E-05
L11 62592U 25008F 25034.66008563 .00007660 00000+0 46833-4 0 9993
L22 62592 43.0004 13.5112 0001392 269.0690 91.0021 15.77861061 4444



Live tracking and technical data element details for STARLINK-11415 [DTC] (NORAD 62592). STARLINK-11415 [DTC] can be tracked NOW for your location showing map with azimuth and elevation plus other details from your city location.







IsCatalogInMostPopularTable: catalog: 62592, numindb: 17
Update: records affected: 1



GetName: 62592 STARLINK-11415 [DTC]

Hit Count: updated at: Sat, 24 May 2025 16:55:19 GMT